Weather in Lukashkin Yar

Russia / Tomsk District     60°19′55″N   78°23′58″E
temp.,
°C
wind,
m/s
gust,
m/s
humid.,
%
clouds,
%
prec.,
mm/h
press.,
hPa
HPBL,
m
8 may, sat
sat801:00+4wnw6127395 0.3 10111152
04:00+3w61272100 0.1 1011600
07:00+3w61068100 0.1 10121074
10:00+3wnw81179100 0.1 10131003
13:00+4nw91168100 0.3 10151321
16:00+5nw81063100 0.1 10161332
19:00+5nw6862100 0.1 10181503
22:00+4nnw5867100 0.0 1019413
9 may, sun
sun901:00+2nnw468443 0.0 102094
04:00+1n3390100 0.0 102255
07:00+1nne238711 0.0 1024109
10:00+6n22675 0.0 1024612
13:00+9n22495 0.0 10251274
16:00+12nnw22414 0.0 10251586
19:00+13n233823 0.0 10251812
22:00+9ene475859 0.0 1026142
10 may, mon
mon1001:00+6ene3868100 0.0 1027256
04:00+4ne3678100 0.0 1028166
07:00+4ne36795 0.0 1029233
10:00+7ne446146 0.0 1029937
13:00+8ne445375 0.0 10291350
16:00+11ne444527 0.0 10281477
19:00+11ne454396 0.0 10271576
22:00+8e4761100 0.0 1027249
11 may, tue
tue1101:00+5e237265 0.0 102744
04:00+4ne22755 0.0 102716
07:00+4ne22725 0.0 102789
10:00+8nnw23565 0.0 1026728
13:00+12n34435 0.0 10241636
16:00+14n44325 0.0 10221930
19:00+14ne44334 0.0 10221722
22:00+9e36541 0.0 1023128
12 may, wed
wed1201:00+6se376550 0.0 1023151
04:00+5ese336976 0.0 102243
07:00+5ese236853 0.0 1023125
10:00+9ese23535 0.0 1023894
13:00+12ese224411 0.0 10221516
16:00+14ese12371 0.0 10221774
19:00+14ene12330 0.0 10221799
22:00+12ese22451 0.0 102310